This is the latest recevied weather packets stored in our database for station/object IZ2WYA-13. If no packets are shown the sender has not sent any weather packets the latest 10 day(s).
| Time | Temp. | Humidity | Pressure | Rain* | Wind** | Luminosity | Snow |
|---|---|---|---|---|---|---|---|
| 1788358648 | 29.44° C | 46% | 1018.4 hPa | - | - | - | - |
| 1788356846 | 28.89° C | 45% | 1018.6 hPa | - | - | - | - |
| 1788355045 | 28.89° C | 45% | 1019 hPa | - | - | - | - |
| 1788353244 | 28.33° C | 47% | 1019.5 hPa | - | - | - | - |
| 1788351442 | 28.33° C | 47% | 1020 hPa | - | - | - | - |
| 1788349641 | 28.33° C | 47% | 1020.2 hPa | - | - | - | - |
| 1788347840 | 28.33° C | 45% | 1020.4 hPa | - | - | - | - |
| 1788346039 | 28.33° C | 46% | 1020.7 hPa | - | - | - | - |
| 1788344237 | 27.22° C | 45% | 1021.4 hPa | - | - | - | - |
| 1788342436 | 26.67° C | 48% | 1021.8 hPa | - | - | - | - |
| 1788340635 | 26.11° C | 48% | 1022.1 hPa | - | - | - | - |
| 1788338833 | 25° C | 52% | 1022.4 hPa | - | - | - | - |
| 1788337032 | 25.56° C | 54% | 1022.4 hPa | - | - | - | - |
| 1788335231 | 23.89° C | 54% | 1022.4 hPa | - | - | - | - |
| 1788333429 | 24.44° C | 56% | 1022.5 hPa | - | - | - | - |
| 1788331628 | 23.33° C | 60% | 1022.5 hPa | - | - | - | - |
| 1788329827 | 21.67° C | 66% | 1022.8 hPa | - | - | - | - |
| 1788328025 | 21.67° C | 66% | 1022.8 hPa | - | - | - | - |
| 1788326224 | 21.11° C | 65% | 1022.6 hPa | - | - | - | - |
| 1788324423 | 21.11° C | 66% | 1022.3 hPa | - | - | - | - |
| 1788322622 | 21.11° C | 66% | 1022.2 hPa | - | - | - | - |
| 1788320820 | 21.11° C | 64% | 1022 hPa | - | - | - | - |
| 1788319019 | 21.67° C | 63% | 1022.2 hPa | - | - | - | - |
| 1788317218 | 21.67° C | 65% | 1022.2 hPa | - | - | - | - |
| 1788315416 | 22.78° C | 58% | 1021.9 hPa | - | - | - | - |
* Rain since midnight (hover to see other rain measurements)
** Current wind speed in m/s (hover to see current wind gust speed)